Hourly Weather Bolshie Prudy

Today, 17 June, Thursday

Time Temperature Precipitation Wind Pressure Humidity
00:00 +14°C° 0 mm 3 mps 743 mmHg 90%
01:00 +14°C° 0 mm 3 mps 743 mmHg 90%
02:00 +14°C° 0 mm 3 mps 743 mmHg 92%
03:00 +14°C° 0 mm 4 mps 743 mmHg 91%
04:00 +15°C° 0 mm 4 mps 744 mmHg 89%
05:00 +15°C° 0 mm 4 mps 744 mmHg 87%
06:00 +17°C° 0 mm 4 mps 744 mmHg 80%
07:00 +19°C° 0 mm 5 mps 745 mmHg 73%
08:00 +19°C° 0 mm 5 mps 745 mmHg 69%
09:00 +20°C° 0 mm 5 mps 746 mmHg 65%
10:00 +21°C° 0 mm 5 mps 746 mmHg 61%
11:00 +22°C° 0 mm 5 mps 746 mmHg 57%
12:00 +22°C° 0 mm 5 mps 746 mmHg 58%
13:00 +22°C° 0 mm 5 mps 746 mmHg 58%
14:00 +22°C° 0 mm 5 mps 746 mmHg 58%
15:00 +22°C° 0 mm 5 mps 746 mmHg 63%
16:00 +22°C° 0 mm 5 mps 746 mmHg 67%
17:00 +21°C° 0 mm 5 mps 746 mmHg 72%
18:00 +20°C° 0 mm 4 mps 746 mmHg 77%
19:00 +18°C° 0 mm 4 mps 747 mmHg 82%
20:00 +17°C° 0 mm 3 mps 747 mmHg 88%
21:00 +16°C° 0 mm 3 mps 747 mmHg 89%
22:00 +14°C° 0 mm 3 mps 747 mmHg 90%
23:00 +14°C° 0 mm 3 mps 747 mmHg 91%

Tomorrow, 18 June, Friday

Time Temperature Precipitation Wind Pressure Humidity
00:00 +13°C° 0 mm 3 mps 747 mmHg 89%
01:00 +13°C° 0 mm 4 mps 748 mmHg 86%
02:00 +12°C° 0 mm 4 mps 748 mmHg 84%
03:00 +13°C° 0 mm 4 mps 748 mmHg 84%
04:00 +13°C° 0 mm 4 mps 748 mmHg 84%
05:00 +13°C° 0 mm 4 mps 748 mmHg 83%
06:00 +15°C° 0 mm 4 mps 749 mmHg 80%
07:00 +17°C° 0 mm 5 mps 749 mmHg 76%
08:00 +19°C° 0 mm 5 mps 749 mmHg 72%
09:00 +20°C° 0 mm 5 mps 749 mmHg 69%
10:00 +21°C° 0 mm 5 mps 749 mmHg 65%
11:00 +22°C° 0 mm 5 mps 749 mmHg 62%
12:00 +22°C° 0 mm 5 mps 749 mmHg 62%
13:00 +23°C° 0 mm 5 mps 749 mmHg 61%
14:00 +23°C° 0 mm 5 mps 749 mmHg 61%
15:00 +23°C° 0 mm 5 mps 749 mmHg 64%
16:00 +22°C° 0 mm 4 mps 749 mmHg 68%
17:00 +22°C° 0 mm 4 mps 749 mmHg 72%
18:00 +20°C° 0 mm 4 mps 749 mmHg 77%
19:00 +19°C° 0 mm 3 mps 749 mmHg 82%
20:00 +17°C° 0 mm 3 mps 749 mmHg 86%
21:00 +16°C° 0 mm 3 mps 749 mmHg 88%
22:00 +16°C° 0 mm 3 mps 749 mmHg 89%
23:00 +14°C° 0 mm 3 mps 749 mmHg 90%

Day after tomorrow, 19 June, Saturday

Time Temperature Precipitation Wind Pressure Humidity
00:00 +14°C° 0 mm 3 mps 749 mmHg 90%
01:00 +13°C° 0 mm 3 mps 749 mmHg 91%
02:00 +13°C° 0 mm 3 mps 749 mmHg 92%
03:00 +13°C° 0 mm 3 mps 749 mmHg 91%
04:00 +15°C° 0 mm 2 mps 750 mmHg 90%
05:00 +15°C° 0 mm 2 mps 750 mmHg 90%
06:00 +17°C° 0 mm 3 mps 750 mmHg 84%
07:00 +18°C° 0 mm 3 mps 750 mmHg 79%
08:00 +20°C° 0 mm 4 mps 750 mmHg 73%
09:00 +21°C° 0 mm 4 mps 750 mmHg 70%
10:00 +22°C° 0 mm 4 mps 749 mmHg 67%
11:00 +22°C° 0 mm 4 mps 749 mmHg 64%
12:00 +23°C° 0 mm 4 mps 749 mmHg 63%
13:00 +23°C° 0 mm 4 mps 749 mmHg 62%
14:00 +25°C° 0 mm 3 mps 748 mmHg 61%
15:00 +24°C° 0 mm 3 mps 748 mmHg 64%
16:00 +24°C° 0 mm 3 mps 748 mmHg 67%
17:00 +24°C° 0 mm 3 mps 748 mmHg 71%
18:00 +21°C° 0 mm 3 mps 748 mmHg 75%
19:00 +19°C° 0 mm 2 mps 748 mmHg 79%
20:00 +18°C° 0 mm 2 mps 748 mmHg 83%
21:00 +17°C° 0 mm 2 mps 748 mmHg 85%
22:00 +16°C° 0 mm 2 mps 748 mmHg 86%
23:00 +16°C° 0 mm 2 mps 748 mmHg 87%

20 June, Sunday

Time Temperature Precipitation Wind Pressure Humidity
00:00 +15°C° 0 mm 2 mps 748 mmHg 88%
01:00 +15°C° 0 mm 2 mps 748 mmHg 89%
02:00 +14°C° 0 mm 2 mps 748 mmHg 90%
03:00 +15°C° 0 mm 2 mps 748 mmHg 89%
04:00 +15°C° 0 mm 2 mps 748 mmHg 89%
05:00 +16°C° 0 mm 2 mps 748 mmHg 88%
06:00 +17°C° 0 mm 2 mps 748 mmHg 83%
07:00 +19°C° 0 mm 3 mps 748 mmHg 78%
08:00 +21°C° 0 mm 3 mps 748 mmHg 73%
09:00 +22°C° 0 mm 3 mps 748 mmHg 69%
10:00 +24°C° 0 mm 3 mps 748 mmHg 65%
11:00 +25°C° 0 mm 3 mps 747 mmHg 61%
12:00 +25°C° 0 mm 3 mps 747 mmHg 60%
13:00 +26°C° 0 mm 3 mps 747 mmHg 59%
14:00 +26°C° 0 mm 3 mps 747 mmHg 58%
15:00 +26°C° 0 mm 3 mps 746 mmHg 62%
16:00 +26°C° 0 mm 3 mps 746 mmHg 66%
17:00 +26°C° 0 mm 3 mps 746 mmHg 70%
18:00 +24°C° 0 mm 3 mps 746 mmHg 75%
19:00 +21°C° 0 mm 3 mps 746 mmHg 80%
20:00 +20°C° 0 mm 3 mps 746 mmHg 85%
21:00 +19°C° 0 mm 3 mps 746 mmHg 85%
22:00 +19°C° 0 mm 3 mps 745 mmHg 85%
23:00 +19°C° 0 mm 3 mps 745 mmHg 86%

21 June, Monday

Time Temperature Precipitation Wind Pressure Humidity
00:00 +18°C° 0 mm 3 mps 745 mmHg 86%
01:00 +18°C° 0 mm 3 mps 745 mmHg 87%
02:00 +18°C° 0 mm 3 mps 745 mmHg 88%
03:00 +18°C° 0 mm 3 mps 745 mmHg 88%
04:00 +18°C° 0 mm 3 mps 745 mmHg 88%
05:00 +19°C° 0 mm 3 mps 745 mmHg 88%
06:00 +20°C° 0 mm 3 mps 745 mmHg 84%
07:00 +21°C° 0 mm 4 mps 745 mmHg 81%
08:00 +23°C° 0 mm 5 mps 745 mmHg 77%
09:00 +25°C° 0 mm 5 mps 745 mmHg 72%
10:00 +26°C° 0 mm 5 mps 745 mmHg 68%
11:00 +27°C° 0 mm 5 mps 745 mmHg 63%
12:00 +28°C° 0 mm 5 mps 744 mmHg 62%
13:00 +28°C° 0 mm 5 mps 744 mmHg 61%
14:00 +29°C° 0 mm 4 mps 744 mmHg 61%
15:00 +28°C° 0 mm 4 mps 744 mmHg 65%
16:00 +28°C° 0 mm 4 mps 744 mmHg 69%
17:00 +27°C° 0 mm 3 mps 744 mmHg 73%
18:00 +26°C° 0 mm 3 mps 744 mmHg 78%
19:00 +24°C° 0 mm 3 mps 744 mmHg 82%
20:00 +22°C° 0 mm 3 mps 744 mmHg 86%
21:00 +21°C° 0 mm 3 mps 744 mmHg 87%
22:00 +21°C° 0 mm 3 mps 744 mmHg 88%
23:00 +20°C° 0 mm 3 mps 744 mmHg 89%

22 June, Tuesday

Time Temperature Precipitation Wind Pressure Humidity
00:00 +20°C° 0 mm 3 mps 744 mmHg 90%
01:00 +19°C° 0 mm 3 mps 744 mmHg 91%
02:00 +19°C° 0 mm 3 mps 744 mmHg 91%
03:00 +19°C° 0 mm 3 mps 744 mmHg 90%
04:00 +19°C° 0 mm 3 mps 744 mmHg 89%
05:00 +20°C° 0 mm 3 mps 744 mmHg 88%
06:00 +21°C° 0 mm 3 mps 744 mmHg 83%
07:00 +23°C° 0 mm 4 mps 744 mmHg 78%
08:00 +26°C° 0 mm 4 mps 744 mmHg 73%
09:00 +27°C° 0 mm 4 mps 744 mmHg 69%
10:00 +28°C° 0 mm 4 mps 744 mmHg 65%
11:00 +29°C° 0 mm 4 mps 745 mmHg 61%
12:00 +29°C° 0 mm 4 mps 745 mmHg 60%
13:00 +30°C° 0 mm 4 mps 745 mmHg 60%
14:00 +30°C° 0 mm 4 mps 745 mmHg 59%
15:00 +29°C° 0 mm 3 mps 744 mmHg 63%
16:00 +29°C° 0 mm 3 mps 744 mmHg 67%
17:00 +28°C° 0 mm 3 mps 744 mmHg 72%
18:00 +27°C° 0 mm 3 mps 744 mmHg 75%
19:00 +26°C° 0 mm 3 mps 744 mmHg 78%
20:00 +24°C° 0 mm 3 mps 744 mmHg 81%
21:00 +22°C° 0 mm 3 mps 744 mmHg 83%
22:00 +22°C° 0 mm 3 mps 744 mmHg 84%
23:00 +21°C° 0 mm 3 mps 744 mmHg 86%
Show more